| time (UTC) | temp F | wind direction | speed MPH | gust MPH | rain 1hr in | rain 24hr in | rain mn in | humidity % | barometer mb |
| 20260506185216 | 69 | 127 | 6.0 | 15.0 | 0.00 | 0.00 | 0.00 | 53 | 1005.4 |
| 20260506184717 | 69 | 126 | 6.0 | 15.0 | 0.00 | 0.00 | 0.00 | 53 | 1005.4 |
| 20260506184218 | 69 | 123 | 4.0 | 13.0 | 0.00 | 0.00 | 0.00 | 52 | 1005.3 |
| 20260506183503 | 69 | 133 | 1.0 | 10.0 | 0.00 | 0.00 | 0.00 | 52 | 1005.3 |
| 20260506183003 | 69 | 139 | 2.0 | 11.0 | 0.00 | 0.00 | 0.00 | 52 | 1005.2 |
| 20260506182503 | 69 | 154 | 3.0 | 14.0 | 0.00 | 0.00 | 0.00 | 52 | 1005.2 |
| 20260506182218 | 70 | 157 | 3.0 | 14.0 | 0.00 | 0.00 | 0.00 | 52 | 1005.1 |
| 20260506181503 | 70 | 154 | 1.0 | 7.0 | 0.00 | 0.00 | 0.00 | 52 | 1005.1 |
| 20260506181003 | 70 | 130 | 1.0 | 7.0 | 0.00 | 0.00 | 0.00 | 52 | 1005.0 |
| 20260506180503 | 70 | 136 | 1.0 | 6.0 | 0.00 | 0.00 | 0.00 | 52 | 1004.9 |
| 20260506180004 | 70 | 133 | 2.0 | 12.0 | 0.00 | 0.00 | 0.00 | 52 | 1005.0 |
| 20260506175503 | 70 | 129 | 2.0 | 12.0 | 0.00 | 0.00 | 0.00 | 51 | 1004.9 |
| 20260506175003 | 70 | 127 | 3.0 | 14.0 | 0.00 | 0.00 | 0.00 | 51 | 1004.7 |
| 20260506174503 | 70 | 127 | 5.0 | 15.0 | 0.00 | 0.00 | 0.00 | 51 | 1004.8 |
| 20260506174003 | 70 | 126 | 6.0 | 15.0 | 0.00 | 0.00 | 0.00 | 51 | 1004.8 |
| 20260506173503 | 71 | 131 | 5.0 | 16.0 | 0.00 | 0.00 | 0.00 | 50 | 1004.9 |
| 20260506173003 | 71 | 138 | 5.0 | 16.0 | 0.00 | 0.00 | 0.00 | 50 | 1004.9 |
| 20260506172503 | 71 | 132 | 4.0 | 12.0 | 0.00 | 0.00 | 0.00 | 50 | 1004.9 |
| 20260506172003 | 71 | 129 | 5.0 | 12.0 | 0.00 | 0.00 | 0.00 | 50 | 1004.9 |
| 20260506171503 | 71 | 129 | 5.0 | 11.0 | 0.00 | 0.00 | 0.00 | 50 | 1004.9 |
| 20260506171003 | 71 | 129 | 4.0 | 12.0 | 0.00 | 0.00 | 0.00 | 50 | 1004.9 |
| 20260506170503 | 71 | 132 | 3.0 | 12.0 | 0.00 | 0.00 | 0.00 | 49 | 1004.9 |
| 20260506170003 | 71 | 134 | 2.0 | 9.0 | 0.00 | 0.00 | 0.00 | 49 | 1004.9 |
| 20260506165503 | 71 | 131 | 3.0 | 10.0 | 0.00 | 0.00 | 0.00 | 49 | 1005.0 |
| 20260506165003 | 71 | 128 | 6.0 | 13.0 | 0.00 | 0.00 | 0.00 | 49 | 1004.9 |
| 20260506164503 | 71 | 126 | 6.0 | 17.0 | 0.00 | 0.00 | 0.00 | 49 | 1004.9 |
| 20260506164003 | 71 | 127 | 5.0 | 17.0 | 0.00 | 0.00 | 0.00 | 50 | 1004.8 |
| 20260506163503 | 71 | 129 | 4.0 | 15.0 | 0.00 | 0.00 | 0.00 | 50 | 1004.9 |
| 20260506163215 | 71 | 130 | 5.0 | 15.0 | 0.00 | 0.00 | 0.00 | 50 | 1004.9 |
| 20260506162716 | 71 | 129 | 4.0 | 18.0 | 0.00 | 0.00 | 0.00 | 50 | 1005.0 |
| 20260506162218 | 71 | 138 | 6.0 | 18.0 | 0.00 | 0.00 | 0.00 | 49 | 1005.1 |
| 20260506161503 | 72 | 142 | 7.0 | 21.0 | 0.00 | 0.00 | 0.00 | 49 | 1005.2 |
| 20260506161003 | 72 | 128 | 8.0 | 21.0 | 0.00 | 0.00 | 0.00 | 51 | 1005.3 |
| 20260506160503 | 72 | 126 | 6.0 | 15.0 | 0.00 | 0.00 | 0.00 | 51 | 1005.4 |
| 20260506160003 | 72 | 126 | 5.0 | 17.0 | 0.00 | 0.00 | 0.00 | 51 | 1005.4 |
| 20260506155503 | 72 | 123 | 6.0 | 17.0 | 0.00 | 0.00 | 0.00 | 52 | 1005.5 |
| 20260506155003 | 72 | 124 | 7.0 | 15.0 | 0.00 | 0.00 | 0.00 | 52 | 1005.5 |
| 20260506154503 | 71 | 126 | 5.0 | 13.0 | 0.00 | 0.00 | 0.00 | 54 | 1005.7 |
| 20260506154003 | 70 | 129 | 6.0 | 14.0 | 0.00 | 0.00 | 0.00 | 55 | 1005.8 |
| 20260506153503 | 70 | 130 | 5.0 | 14.0 | 0.00 | 0.00 | 0.00 | 56 | 1005.9 |
| 20260506153219 | 70 | 130 | 3.0 | 14.0 | 0.00 | 0.00 | 0.00 | 57 | 1006.0 |
| 20260506152503 | 70 | 130 | 4.0 | 16.0 | 0.00 | 0.00 | 0.00 | 54 | 1006.1 |
| 20260506152003 | 70 | 128 | 5.0 | 17.0 | 0.00 | 0.00 | 0.00 | 54 | 1006.2 |
| 20260506151718 | 70 | 127 | 5.0 | 17.0 | 0.00 | 0.00 | 0.00 | 54 | 1006.2 |
| 20260506151003 | 70 | 129 | 5.0 | 13.0 | 0.00 | 0.00 | 0.00 | 54 | 1006.2 |
| 20260506150503 | 70 | 131 | 5.0 | 13.0 | 0.00 | 0.00 | 0.00 | 55 | 1006.3 |
| 20260506150003 | 70 | 129 | 5.0 | 13.0 | 0.00 | 0.00 | 0.00 | 54 | 1006.3 |
| 20260506145503 | 71 | 128 | 4.0 | 14.0 | 0.00 | 0.00 | 0.00 | 52 | 1006.3 |
| 20260506145003 | 71 | 124 | 4.0 | 14.0 | 0.00 | 0.00 | 0.00 | 52 | 1006.4 |
| 20260506144503 | 72 | 121 | 6.0 | 19.0 | 0.00 | 0.00 | 0.00 | 52 | 1006.4 |
| 20260506144003 | 72 | 125 | 7.0 | 19.0 | 0.00 | 0.00 | 0.00 | 51 | 1006.4 |
| 20260506143503 | 72 | 129 | 6.0 | 19.0 | 0.00 | 0.00 | 0.00 | 50 | 1006.4 |
| 20260506143003 | 72 | 126 | 7.0 | 17.0 | 0.00 | 0.00 | 0.00 | 49 | 1006.5 |
| 20260506142503 | 72 | 128 | 5.0 | 17.0 | 0.00 | 0.00 | 0.00 | 48 | 1006.6 |
| 20260506142003 | 72 | 155 | 3.0 | 13.0 | 0.00 | 0.00 | 0.00 | 47 | 1006.6 |
| 20260506141503 | 72 | 150 | 4.0 | 14.0 | 0.00 | 0.00 | 0.00 | 46 | 1006.6 |
| 20260506141003 | 73 | 136 | 3.0 | 14.0 | 0.00 | 0.00 | 0.00 | 45 | 1006.6 |
| 20260506140503 | 73 | 145 | 2.0 | 11.0 | 0.00 | 0.00 | 0.00 | 45 | 1006.6 |
| 20260506140003 | 74 | 150 | 2.0 | 12.0 | 0.00 | 0.00 | 0.00 | 44 | 1006.7 |
| 20260506135503 | 74 | 137 | 3.0 | 12.0 | 0.00 | 0.00 | 0.00 | 44 | 1006.7 |
| 20260506135003 | 73 | 129 | 4.0 | 14.0 | 0.00 | 0.00 | 0.00 | 44 | 1006.8 |
| 20260506134504 | 73 | 137 | 2.0 | 14.0 | 0.00 | 0.00 | 0.00 | 44 | 1006.9 |
| 20260506134003 | 74 | 145 | 1.0 | 10.0 | 0.00 | 0.00 | 0.00 | 44 | 1007.0 |
| 20260506133717 | 74 | 149 | 2.0 | 10.0 | 0.00 | 0.00 | 0.00 | 44 | 1007.0 |
| 20260506133218 | 73 | 139 | 5.0 | 14.0 | 0.00 | 0.00 | 0.00 | 46 | 1007.0 |
| 20260506132503 | 72 | 127 | 7.0 | 16.0 | 0.00 | 0.00 | 0.00 | 46 | 1007.1 |
| 20260506132216 | 72 | 128 | 6.0 | 16.0 | 0.00 | 0.00 | 0.00 | 47 | 1007.1 |
| 20260506131503 | 72 | 160 | 4.0 | 15.0 | 0.00 | 0.00 | 0.00 | 46 | 1007.3 |
| 20260506131003 | 72 | 171 | 2.0 | 13.0 | 0.00 | 0.00 | 0.00 | 45 | 1007.3 |
| 20260506130503 | 73 | 143 | 2.0 | 15.0 | 0.00 | 0.00 | 0.00 | 45 | 1007.3 |
| 20260506130003 | 73 | 147 | 3.0 | 15.0 | 0.00 | 0.00 | 0.00 | 44 | 1007.3 |
| 20260506125503 | 73 | 171 | 4.0 | 12.0 | 0.00 | 0.00 | 0.00 | 44 | 1007.4 |
| 20260506125003 | 73 | 167 | 4.0 | 10.0 | 0.00 | 0.00 | 0.00 | 43 | 1007.5 |
| 20260506124503 | 73 | 173 | 4.0 | 15.0 | 0.00 | 0.00 | 0.00 | 44 | 1007.5 |
| 20260506124003 | 72 | 174 | 4.0 | 15.0 | 0.00 | 0.00 | 0.00 | 43 | 1007.6 |
| 20260506123503 | 73 | 173 | 4.0 | 13.0 | 0.00 | 0.00 | 0.00 | 43 | 1007.6 |
| 20260506123003 | 73 | 191 | 5.0 | 17.0 | 0.00 | 0.00 | 0.00 | 43 | 1007.5 |
| 20260506122503 | 73 | 198 | 4.0 | 17.0 | 0.00 | 0.00 | 0.00 | 43 | 1007.6 |
| 20260506122003 | 73 | 204 | 1.0 | 8.0 | 0.00 | 0.00 | 0.00 | 45 | 1007.6 |
| 20260506121503 | 72 | 212 | 0.0 | 6.0 | 0.00 | 0.00 | 0.00 | 47 | 1007.6 |
| 20260506121003 | 71 | 192 | 0.0 | 5.0 | 0.00 | 0.00 | 0.00 | 47 | 1007.6 |
| 20260506120503 | 71 | 148 | 0.0 | 8.0 | 0.00 | 0.00 | 0.00 | 48 | 1007.7 |
| 20260506120003 | 71 | 186 | 3.0 | 11.0 | 0.00 | 0.00 | 0.00 | 48 | 1007.7 |
| 20260506115503 | 71 | 193 | 5.0 | 11.0 | 0.00 | 0.00 | 0.00 | 48 | 1007.7 |
| 20260506115003 | 71 | 181 | 4.0 | 12.0 | 0.00 | 0.00 | 0.00 | 47 | 1007.8 |
| 20260506114503 | 72 | 156 | 3.0 | 12.0 | 0.00 | 0.00 | 0.00 | 47 | 1007.7 |
| 20260506114003 | 73 | 161 | 2.0 | 11.0 | 0.00 | 0.00 | 0.00 | 47 | 1007.8 |
| 20260506113503 | 73 | 176 | 2.0 | 9.0 | 0.00 | 0.00 | 0.00 | 46 | 1007.8 |
| 20260506113003 | 73 | 175 | 2.0 | 10.0 | 0.00 | 0.00 | 0.00 | 47 | 1007.9 |
| 20260506112719 | 72 | 185 | 1.0 | 11.0 | 0.00 | 0.00 | 0.00 | 48 | 1008.0 |
| 20260506112003 | 72 | 162 | 3.0 | 14.0 | 0.00 | 0.00 | 0.00 | 49 | 1008.0 |
| 20260506111503 | 72 | 164 | 4.0 | 14.0 | 0.00 | 0.00 | 0.00 | 47 | 1008.0 |
| 20260506111003 | 72 | 177 | 4.0 | 17.0 | 0.00 | 0.00 | 0.00 | 47 | 1008.0 |
| 20260506110719 | 72 | 179 | 3.0 | 17.0 | 0.00 | 0.00 | 0.00 | 48 | 1008.1 |
| 20260506110003 | 72 | 193 | 2.0 | 15.0 | 0.00 | 0.00 | 0.00 | 48 | 1008.1 |
| 20260506105503 | 71 | 183 | 4.0 | 12.0 | 0.00 | 0.00 | 0.00 | 47 | 1008.2 |
| 20260506105003 | 72 | 151 | 5.0 | 13.0 | 0.00 | 0.00 | 0.00 | 46 | 1008.2 |
| 20260506104503 | 72 | 129 | 5.0 | 13.0 | 0.00 | 0.00 | 0.00 | 48 | 1008.1 |
| 20260506104003 | 72 | 132 | 3.0 | 13.0 | 0.00 | 0.00 | 0.00 | 47 | 1008.1 |
| 20260506103503 | 72 | 196 | 2.0 | 12.0 | 0.00 | 0.00 | 0.00 | 47 | 1008.3 |
| 20260506103003 | 72 | 194 | 1.0 | 12.0 | 0.00 | 0.00 | 0.00 | 47 | 1008.3 |
| 20260506102503 | 71 | 189 | 2.0 | 9.0 | 0.00 | 0.00 | 0.00 | 50 | 1008.4 |
| 20260506102003 | 70 | 188 | 3.0 | 13.0 | 0.00 | 0.00 | 0.00 | 49 | 1008.4 |
| 20260506101503 | 71 | 171 | 4.0 | 13.0 | 0.00 | 0.00 | 0.00 | 50 | 1008.5 |
| 20260506101003 | 71 | 165 | 3.0 | 13.0 | 0.00 | 0.00 | 0.00 | 49 | 1008.4 |
| 20260506100503 | 70 | 210 | 2.0 | 13.0 | 0.00 | 0.00 | 0.00 | 50 | 1008.5 |
| 20260506100219 | 70 | 205 | 3.0 | 14.0 | 0.00 | 0.00 | 0.00 | 50 | 1008.5 |
| 20260506095503 | 70 | 157 | 4.0 | 14.0 | 0.00 | 0.00 | 0.00 | 49 | 1008.5 |
| 20260506095003 | 70 | 138 | 3.0 | 11.0 | 0.00 | 0.00 | 0.00 | 50 | 1008.5 |
| 20260506094503 | 70 | 244 | 3.0 | 11.0 | 0.00 | 0.00 | 0.00 | 50 | 1008.6 |
| 20260506094003 | 69 | 250 | 3.0 | 11.0 | 0.00 | 0.00 | 0.00 | 53 | 1008.6 |
| 20260506093503 | 69 | 260 | 0.0 | 8.0 | 0.00 | 0.00 | 0.00 | 54 | 1008.6 |
| 20260506093217 | 68 | 258 | 1.0 | 8.0 | 0.00 | 0.00 | 0.00 | 55 | 1008.6 |
| 20260506092503 | 68 | 268 | 1.0 | 11.0 | 0.00 | 0.00 | 0.00 | 53 | 1008.5 |
| 20260506092003 | 69 | 219 | 1.0 | 10.0 | 0.00 | 0.00 | 0.00 | 54 | 1008.5 |
| 20260506091503 | 69 | 207 | 1.0 | 10.0 | 0.00 | 0.00 | 0.00 | 54 | 1008.6 |
| 20260506091003 | 68 | 213 | 1.0 | 7.0 | 0.00 | 0.00 | 0.00 | 54 | 1008.6 |
| 20260506090503 | 68 | 227 | 3.0 | 10.0 | 0.00 | 0.00 | 0.00 | 55 | 1008.6 |
| 20260506090003 | 68 | 241 | 3.0 | 10.0 | 0.00 | 0.00 | 0.00 | 55 | 1008.5 |
| 20260506085503 | 67 | 254 | 2.0 | 8.0 | 0.00 | 0.00 | 0.00 | 57 | 1008.5 |
| 20260506085003 | 67 | 255 | 2.0 | 10.0 | 0.00 | 0.00 | 0.00 | 56 | 1008.5 |
| 20260506084503 | 66 | 274 | 1.0 | 10.0 | 0.00 | 0.00 | 0.00 | 57 | 1008.6 |
| 20260506084003 | 66 | 249 | 1.0 | 9.0 | 0.00 | 0.00 | 0.00 | 57 | 1008.6 |
| 20260506083503 | 66 | 209 | 1.0 | 8.0 | 0.00 | 0.00 | 0.00 | 58 | 1008.6 |
| 20260506083003 | 65 | 274 | 4.0 | 11.0 | 0.00 | 0.00 | 0.00 | 59 | 1008.6 |
| 20260506082503 | 65 | 271 | 4.0 | 11.0 | 0.00 | 0.00 | 0.00 | 60 | 1008.6 |
| 20260506082218 | 65 | 262 | 3.0 | 11.0 | 0.00 | 0.00 | 0.00 | 61 | 1008.6 |
| 20260506081503 | 65 | 250 | 0.0 | 6.0 | 0.00 | 0.00 | 0.00 | 59 | 1008.6 |
| 20260506081003 | 65 | 276 | 1.0 | 11.0 | 0.00 | 0.00 | 0.00 | 59 | 1008.5 |
| 20260506080718 | 65 | 276 | 1.0 | 11.0 | 0.00 | 0.00 | 0.00 | 60 | 1008.6 |
| 20260506080218 | 65 | 267 | 0.0 | 4.0 | 0.00 | 0.00 | 0.00 | 62 | 1008.5 |
| 20260506073503 | 65 | 230 | 2.0 | 8.0 | 0.00 | 0.00 | 0.00 | 64 | 1008.5 |
| 20260506073003 | 64 | 236 | 3.0 | 12.0 | 0.00 | 0.00 | 0.00 | 62 | 1008.6 |
| 20260506072503 | 64 | 258 | 3.0 | 12.0 | 0.00 | 0.00 | 0.00 | 63 | 1008.6 |
| 20260506072003 | 64 | 234 | 3.0 | 10.0 | 0.00 | 0.00 | 0.00 | 64 | 1008.6 |
| 20260506071503 | 64 | 212 | 3.0 | 6.0 | 0.00 | 0.00 | 0.00 | 63 | 1008.5 |
| 20260506071003 | 64 | 225 | 1.0 | 8.0 | 0.00 | 0.00 | 0.00 | 66 | 1008.5 |
| 20260506070503 | 64 | 213 | 1.0 | 10.0 | 0.00 | 0.00 | 0.00 | 66 | 1008.6 |
| 20260506062503 | 62 | 214 | 0.0 | 7.0 | 0.00 | 0.00 | 0.00 | 70 | 1008.6 |
| 20260506062218 | 62 | 210 | 1.0 | 7.0 | 0.00 | 0.00 | 0.00 | 69 | 1008.6 |
| 20260506061503 | 62 | 202 | 0.0 | 6.0 | 0.00 | 0.00 | 0.00 | 70 | 1008.5 |
| 20260506061003 | 61 | 124 | 0.0 | 5.0 | 0.00 | 0.00 | 0.00 | 73 | 1008.6 |
| 20260506060503 | 61 | 120 | 0.0 | 5.0 | 0.00 | 0.00 | 0.00 | 74 | 1008.4 |
| 20260506051219 | 54 | 0 | 0.0 | 0.0 | 0.00 | 0.00 | 0.00 | 76 | 1008.2 |
| 20260506050503 | 53 | 0 | 0.0 | 0.0 | 0.00 | 0.00 | 0.00 | 76 | 1008.2 |
| 20260506045003 | 51 | 0 | 0.0 | 0.0 | 0.00 | 0.00 | 0.00 | 73 | 1008.0 |
| 20260506044716 | 51 | 0 | 0.0 | 0.0 | 0.00 | 0.00 | 0.00 | 72 | 1008.0 |
| 20260506044003 | 50 | 0 | 0.0 | 0.0 | 0.00 | 0.00 | 0.00 | 74 | 1008.0 |
| 20260506043504 | 49 | 0 | 0.0 | 0.0 | 0.00 | 0.00 | 0.00 | 75 | 1008.0 |
| 20260506043219 | 49 | 0 | 0.0 | 0.0 | 0.00 | 0.00 | 0.00 | 75 | 1008.0 |
| 20260506042503 | 49 | 0 | 0.0 | 0.0 | 0.00 | 0.00 | 0.00 | 76 | 1007.7 |
| 20260506042217 | 49 | 0 | 0.0 | 0.0 | 0.00 | 0.00 | 0.00 | 76 | 1007.6 |
| 20260506041503 | 50 | 0 | 0.0 | 0.0 | 0.00 | 0.00 | 0.00 | 76 | 1007.5 |
| 20260506041003 | 50 | 0 | 0.0 | 0.0 | 0.00 | 0.00 | 0.00 | 77 | 1007.5 |
| 20260506040503 | 50 | 0 | 0.0 | 0.0 | 0.00 | 0.00 | 0.00 | 77 | 1007.5 |
| 20260506040003 | 50 | 0 | 0.0 | 0.0 | 0.00 | 0.00 | 0.00 | 77 | 1007.5 |
| 20260506035503 | 50 | 0 | 0.0 | 0.0 | 0.00 | 0.00 | 0.00 | 77 | 1007.6 |
| 20260506035003 | 51 | 0 | 0.0 | 0.0 | 0.00 | 0.00 | 0.00 | 77 | 1007.5 |
| 20260506034503 | 51 | 0 | 0.0 | 0.0 | 0.00 | 0.00 | 0.00 | 77 | 1007.5 |
| 20260506034217 | 51 | 0 | 0.0 | 0.0 | 0.00 | 0.00 | 0.00 | 77 | 1007.5 |
| 20260506033503 | 51 | 0 | 0.0 | 0.0 | 0.00 | 0.00 | 0.00 | 77 | 1007.5 |
| 20260506033004 | 52 | 0 | 0.0 | 0.0 | 0.00 | 0.00 | 0.00 | 77 | 1007.4 |
| 20260506032503 | 52 | 0 | 0.0 | 0.0 | 0.00 | 0.00 | 0.00 | 77 | 1007.3 |
| 20260506032003 | 52 | 143 | 0.0 | 3.0 | 0.00 | 0.00 | 0.00 | 77 | 1007.2 |
| 20260506031503 | 52 | 143 | 0.0 | 3.0 | 0.00 | 0.00 | 0.00 | 77 | 1007.2 |
| 20260506031003 | 53 | 0 | 0.0 | 0.0 | 0.00 | 0.00 | 0.00 | 77 | 1007.3 |
| 20260506030503 | 53 | 145 | 0.0 | 4.0 | 0.00 | 0.00 | 0.00 | 77 | 1007.3 |
| 20260506030003 | 52 | 145 | 0.0 | 4.0 | 0.00 | 0.00 | 0.00 | 77 | 1007.3 |
| 20260506025503 | 52 | 0 | 0.0 | 0.0 | 0.00 | 0.00 | 0.00 | 77 | 1007.3 |
| 20260506025003 | 52 | 0 | 0.0 | 0.0 | 0.00 | 0.00 | 0.00 | 77 | 1007.2 |
| 20260506024503 | 52 | 0 | 0.0 | 0.0 | 0.00 | 0.00 | 0.00 | 77 | 1007.2 |
| 20260506024003 | 52 | 0 | 0.0 | 0.0 | 0.00 | 0.00 | 0.00 | 77 | 1007.1 |
| 20260506023503 | 52 | 0 | 0.0 | 0.0 | 0.00 | 0.00 | 0.00 | 77 | 1007.1 |
| 20260506023003 | 52 | 0 | 0.0 | 0.0 | 0.00 | 0.00 | 0.00 | 77 | 1007.2 |
| 20260506022503 | 53 | 0 | 0.0 | 0.0 | 0.00 | 0.00 | 0.00 | 77 | 1007.0 |
| 20260506022003 | 53 | 145 | 0.0 | 1.0 | 0.00 | 0.00 | 0.00 | 77 | 1007.0 |
| 20260506021503 | 53 | 186 | 0.0 | 1.0 | 0.00 | 0.00 | 0.00 | 77 | 1007.0 |
| 20260506021003 | 53 | 258 | 0.0 | 1.0 | 0.00 | 0.00 | 0.00 | 77 | 1007.0 |
| 20260506020503 | 53 | 0 | 0.0 | 0.0 | 0.00 | 0.00 | 0.00 | 77 | 1007.1 |
| 20260506020003 | 53 | 0 | 0.0 | 0.0 | 0.00 | 0.00 | 0.00 | 77 | 1007.1 |
| 20260506015503 | 53 | 0 | 0.0 | 0.0 | 0.00 | 0.00 | 0.00 | 77 | 1007.0 |
| 20260506015003 | 53 | 0 | 0.0 | 0.0 | 0.00 | 0.00 | 0.00 | 77 | 1006.9 |
| 20260506014719 | 53 | 0 | 0.0 | 0.0 | 0.00 | 0.00 | 0.00 | 77 | 1007.0 |
| 20260506014003 | 53 | 0 | 0.0 | 0.0 | 0.00 | 0.00 | 0.00 | 76 | 1007.1 |
| 20260506013503 | 53 | 0 | 0.0 | 0.0 | 0.00 | 0.00 | 0.00 | 77 | 1007.1 |
| 20260506013003 | 53 | 0 | 0.0 | 0.0 | 0.00 | 0.00 | 0.00 | 76 | 1007.2 |
| 20260506012504 | 53 | 0 | 0.0 | 0.0 | 0.00 | 0.00 | 0.00 | 76 | 1007.2 |
| 20260506012216 | 53 | 0 | 0.0 | 0.0 | 0.00 | 0.00 | 0.00 | 76 | 1007.3 |
| 20260506011503 | 53 | 0 | 0.0 | 0.0 | 0.00 | 0.00 | 0.00 | 75 | 1007.1 |
| 20260506011003 | 53 | 0 | 0.0 | 0.0 | 0.00 | 0.00 | 0.00 | 75 | 1006.9 |
| 20260506010719 | 53 | 0 | 0.0 | 0.0 | 0.00 | 0.00 | 0.00 | 75 | 1006.9 |
| 20260506010003 | 53 | 0 | 0.0 | 0.0 | 0.00 | 0.00 | 0.00 | 75 | 1006.9 |
| 20260506005717 | 54 | 287 | 0.0 | 2.0 | 0.00 | 0.00 | 0.00 | 74 | 1007.0 |
| 20260506005003 | 54 | 287 | 0.0 | 2.0 | 0.00 | 0.00 | 0.00 | 74 | 1006.9 |
| 20260506004504 | 54 | 0 | 0.0 | 0.0 | 0.00 | 0.00 | 0.00 | 73 | 1006.8 |
| 20260506004003 | 54 | 0 | 0.0 | 0.0 | 0.00 | 0.00 | 0.00 | 73 | 1007.0 |
| 20260506003716 | 55 | 0 | 0.0 | 0.0 | 0.00 | 0.00 | 0.00 | 72 | 1007.0 |
| 20260506003218 | 55 | 0 | 0.0 | 0.0 | 0.00 | 0.00 | 0.00 | 72 | 1007.0 |
| 20260506002718 | 55 | 0 | 0.0 | 0.0 | 0.00 | 0.00 | 0.00 | 72 | 1007.0 |
| 20260506002219 | 55 | 0 | 0.0 | 0.0 | 0.00 | 0.00 | 0.00 | 71 | 1007.1 |
| 20260506001503 | 55 | 0 | 0.0 | 0.0 | 0.00 | 0.00 | 0.00 | 71 | 1007.1 |
| 20260506001003 | 55 | 0 | 0.0 | 0.0 | 0.00 | 0.00 | 0.00 | 71 | 1007.1 |
| 20260506000503 | 56 | 278 | 0.0 | 3.0 | 0.00 | 0.00 | 0.00 | 70 | 1007.0 |
| 20260506000003 | 56 | 278 | 0.0 | 3.0 | 0.00 | 0.00 | 0.00 | 69 | 1007.0 |
| 20260505235503 | 57 | 0 | 0.0 | 0.0 | 0.00 | 0.00 | 0.00 | 68 | 1007.0 |
| 20260505235003 | 57 | 191 | 0.0 | 1.0 | 0.00 | 0.00 | 0.00 | 68 | 1007.0 |
| 20260505234503 | 58 | 199 | 0.0 | 4.0 | 0.00 | 0.00 | 0.00 | 66 | 1007.1 |
| 20260505234003 | 58 | 199 | 0.0 | 4.0 | 0.00 | 0.00 | 0.00 | 66 | 1007.1 |
| 20260505233503 | 58 | 175 | 0.0 | 2.0 | 0.00 | 0.00 | 0.00 | 66 | 1007.0 |
| 20260505233003 | 58 | 148 | 0.0 | 3.0 | 0.00 | 0.00 | 0.00 | 66 | 1006.8 |
| 20260505232503 | 58 | 146 | 1.0 | 4.0 | 0.00 | 0.00 | 0.00 | 66 | 1006.9 |
| 20260505232003 | 58 | 162 | 1.0 | 4.0 | 0.00 | 0.00 | 0.00 | 66 | 1006.9 |
| 20260505231503 | 58 | 178 | 2.0 | 5.0 | 0.00 | 0.00 | 0.00 | 65 | 1006.8 |
| 20260505231003 | 58 | 163 | 2.0 | 8.0 | 0.00 | 0.00 | 0.00 | 64 | 1006.8 |
| 20260505230503 | 59 | 131 | 2.0 | 8.0 | 0.00 | 0.00 | 0.00 | 63 | 1006.8 |
| 20260505230003 | 59 | 129 | 2.0 | 8.0 | 0.00 | 0.00 | 0.00 | 63 | 1006.8 |
| 20260505225503 | 59 | 125 | 1.0 | 5.0 | 0.00 | 0.00 | 0.00 | 62 | 1006.7 |
| 20260505225003 | 60 | 119 | 4.0 | 11.0 | 0.00 | 0.00 | 0.00 | 61 | 1006.7 |
| 20260505224503 | 60 | 118 | 4.0 | 13.0 | 0.00 | 0.00 | 0.00 | 60 | 1006.7 |
| 20260505224219 | 60 | 118 | 4.0 | 13.0 | 0.00 | 0.00 | 0.00 | 60 | 1006.7 |
| 20260505223503 | 61 | 120 | 6.0 | 14.0 | 0.00 | 0.00 | 0.00 | 59 | 1006.8 |
| 20260505223003 | 61 | 120 | 6.0 | 14.0 | 0.00 | 0.00 | 0.00 | 60 | 1006.7 |
| 20260505222503 | 60 | 123 | 3.0 | 12.0 | 0.00 | 0.00 | 0.00 | 59 | 1006.7 |
| 20260505222003 | 61 | 120 | 2.0 | 10.0 | 0.00 | 0.00 | 0.00 | 59 | 1006.8 |
| 20260505221716 | 61 | 120 | 2.0 | 12.0 | 0.00 | 0.00 | 0.00 | 59 | 1006.7 |
| 20260505221217 | 61 | 121 | 1.0 | 12.0 | 0.00 | 0.00 | 0.00 | 59 | 1006.7 |
| 20260505220503 | 61 | 118 | 2.0 | 12.0 | 0.00 | 0.00 | 0.00 | 59 | 1006.7 |
| 20260505220004 | 61 | 114 | 4.0 | 12.0 | 0.00 | 0.00 | 0.00 | 58 | 1006.7 |
| 20260505215503 | 61 | 118 | 4.0 | 13.0 | 0.00 | 0.00 | 0.00 | 57 | 1006.7 |
| 20260505215003 | 61 | 121 | 3.0 | 13.0 | 0.00 | 0.00 | 0.00 | 57 | 1006.7 |
| 20260505214503 | 61 | 120 | 2.0 | 8.0 | 0.00 | 0.00 | 0.00 | 58 | 1006.8 |
| 20260505214003 | 61 | 122 | 1.0 | 8.0 | 0.00 | 0.00 | 0.00 | 58 | 1006.7 |
| 20260505213503 | 61 | 121 | 0.0 | 4.0 | 0.00 | 0.00 | 0.00 | 58 | 1006.8 |
| 20260505213216 | 61 | 121 | 1.0 | 7.0 | 0.00 | 0.00 | 0.00 | 57 | 1006.8 |
| 20260505212503 | 62 | 125 | 2.0 | 7.0 | 0.00 | 0.00 | 0.00 | 56 | 1006.9 |
| 20260505212003 | 62 | 125 | 2.0 | 7.0 | 0.00 | 0.00 | 0.00 | 56 | 1006.8 |
| 20260505211503 | 62 | 124 | 2.0 | 9.0 | 0.00 | 0.00 | 0.00 | 56 | 1006.8 |
| 20260505211003 | 62 | 124 | 2.0 | 9.0 | 0.00 | 0.00 | 0.00 | 55 | 1006.8 |
| 20260505210503 | 63 | 126 | 1.0 | 7.0 | 0.00 | 0.00 | 0.00 | 55 | 1006.8 |
| 20260505210003 | 63 | 125 | 0.0 | 7.0 | 0.00 | 0.00 | 0.00 | 54 | 1006.9 |
| 20260505205503 | 63 | 126 | 1.0 | 10.0 | 0.00 | 0.00 | 0.00 | 54 | 1006.9 |
| 20260505205003 | 64 | 127 | 4.0 | 10.0 | 0.00 | 0.00 | 0.00 | 54 | 1006.9 |
| 20260505204503 | 64 | 125 | 5.0 | 10.0 | 0.00 | 0.00 | 0.00 | 53 | 1006.9 |
| 20260505204003 | 64 | 123 | 3.0 | 10.0 | 0.00 | 0.00 | 0.00 | 53 | 1006.8 |
| 20260505203719 | 64 | 124 | 4.0 | 9.0 | 0.00 | 0.00 | 0.00 | 54 | 1006.8 |
| 20260505203003 | 64 | 125 | 3.0 | 13.0 | 0.00 | 0.00 | 0.00 | 53 | 1006.7 |
| 20260505202503 | 64 | 125 | 2.0 | 13.0 | 0.00 | 0.00 | 0.00 | 53 | 1006.6 |
| 20260505202218 | 64 | 129 | 1.0 | 13.0 | 0.00 | 0.00 | 0.00 | 53 | 1006.6 |
| 20260505201719 | 65 | 126 | 2.0 | 11.0 | 0.00 | 0.00 | 0.00 | 52 | 1006.6 |
| 20260505201003 | 65 | 125 | 4.0 | 10.0 | 0.00 | 0.00 | 0.00 | 52 | 1006.6 |
| 20260505200503 | 65 | 127 | 3.0 | 10.0 | 0.00 | 0.00 | 0.00 | 52 | 1006.6 |
| 20260505200003 | 66 | 129 | 1.0 | 5.0 | 0.00 | 0.00 | 0.00 | 51 | 1006.6 |
| 20260505195503 | 66 | 132 | 0.0 | 3.0 | 0.00 | 0.00 | 0.00 | 50 | 1006.7 |
| 20260505195003 | 66 | 134 | 1.0 | 5.0 | 0.00 | 0.00 | 0.00 | 50 | 1006.6 |
| 20260505194503 | 66 | 129 | 1.0 | 7.0 | 0.00 | 0.00 | 0.00 | 50 | 1006.6 |
| 20260505194005 | 67 | 129 | 2.0 | 11.0 | 0.00 | 0.00 | 0.00 | 49 | 1006.6 |
| 20260505193503 | 67 | 135 | 3.0 | 11.0 | 0.00 | 0.00 | 0.00 | 48 | 1006.6 |
| 20260505193003 | 67 | 134 | 3.0 | 10.0 | 0.00 | 0.00 | 0.00 | 48 | 1006.6 |
| 20260505192503 | 67 | 129 | 3.0 | 10.0 | 0.00 | 0.00 | 0.00 | 48 | 1006.5 |
| 20260505192218 | 68 | 132 | 3.0 | 11.0 | 0.00 | 0.00 | 0.00 | 48 | 1006.6 |
| 20260505191503 | 68 | 132 | 3.0 | 14.0 | 0.00 | 0.00 | 0.00 | 47 | 1006.5 |
| 20260505191215 | 68 | 130 | 4.0 | 15.0 | 0.00 | 0.00 | 0.00 | 47 | 1006.5 |
| 20260505190503 | 69 | 132 | 5.0 | 15.0 | 0.00 | 0.00 | 0.00 | 46 | 1006.4 |
| 20260505190004 | 69 | 131 | 4.0 | 16.0 | 0.00 | 0.00 | 0.00 | 46 | 1006.4 |
| 20260505185503 | 69 | 130 | 3.0 | 16.0 | 0.00 | 0.00 | 0.00 | 45 | 1006.4 |